History Range:
146.850
Actions Date Temp RH
2019-06-11 18:00:02 85.8000 5.8000
2019-06-11 18:30:00 85.6000 6.2000
2019-06-11 19:00:02 85.8000 8.2000
2019-06-11 19:30:06 85.5000 8.1000
2019-06-11 20:00:08 86.4000 7.1000
2019-06-11 20:30:00 86.4000 7.0000
2019-06-11 21:00:04 85.3000 9.6000
2019-06-11 21:30:04 84.9000 9.9000
2019-06-11 22:00:02 85.1000 9.8000
2019-06-11 22:30:02 84.7000 10.1000
2019-06-11 23:00:00 84.2000 11.2000
2019-06-11 23:31:27 84.0000 11.9000
2019-06-12 00:00:44 83.8000 11.3000
2019-06-12 00:30:04 83.7000 12.0000
2019-06-12 01:00:00 81.9000 11.8000
2019-06-12 01:30:02 83.3000 12.3000
2019-06-12 02:00:22 83.1000 11.7000
2019-06-12 02:30:56 82.9000 12.6000
2019-06-12 03:00:02 82.6000 14.4000
2019-06-12 03:31:59 82.6000 14.0000